Home > Weather > Tau > Past weeks

Flag for Norway Weather for the Past 2 Weeks in Tau, Norway

Now
50 °F

Clear.


Feels Like: 45 °F
Forecast: 44 / 55 °F
Wind: 14 mph from South

Location: Stavanger / Sola

Current Time: May 6, 2016 at 12:48:14 AM

Latest Report: May 5, 2016 at 11:50 PM


Visibility: 10 mi

Pressure: 30.18 "Hg

Humidity: 58%

Dew Point: 36 °F

Location of TauLocation

Historic Weather in Tau — Graph

°F

Tau Temperature Yesterday

Maximum temperature yesterday: 59 °F (at 1:20 PM)
Minimum temperature yesterday: 46 °F (at 3:50 AM)
Average temperature yesterday: 53 °F

High & Low Weather Summary for the Past Weeks

 TemperatureHumidityPressure
High59 °F (May 5, 1:20 PM)100% (Apr 29, 3:50 AM)30.33 "Hg (Apr 29, 3:50 AM)
Low30 °F (Apr 25, 5:50 AM)29% (Apr 26, 12:20 PM)29.50 "Hg (Apr 25, 12:50 PM)
Average45 °F69%29.95 "Hg
* Reported Apr 20 11:20 PM — May 5 11:50 PM, Tau, Weather by CustomWeather, © 2016

Note: Actual official high and low records may vary slightly from our data, if they occured in-between our weather recording intervals... More about our weather records

Advertising

Tau Weather History for the Previous 24 Hours

Scroll right to see more
 ConditionsComfort  
Time TempWeatherWind HumidityBarometerVisibility
11:50 PM
Thu, May 5
50 °FClear.14 mph58%30.18 "Hg10 mi
11:20 PM50 °FClear.13 mph58%30.18 "Hg10 mi
10:50 PM52 °FClear.14 mph50%30.18 "Hg10 mi
10:20 PM52 °FSunny.15 mph50%30.18 "Hg10 mi
9:50 PM52 °FSunny.15 mph50%30.18 "Hg10 mi
9:20 PM54 °FSunny.15 mph47%30.18 "Hg10 mi
8:50 PM54 °FSunny.15 mph47%30.18 "Hg10 mi
8:20 PM54 °FSunny.16 mph47%30.18 "Hg10 mi
7:50 PM55 °FSunny.18 mph47%30.21 "Hg10 mi
7:20 PM55 °FSunny.18 mph47%30.21 "Hg10 mi
6:50 PM57 °FSunny.20 mph44%30.21 "Hg10 mi
6:20 PM57 °FSunny.20 mph48%30.21 "Hg10 mi
5:50 PM57 °FSunny.20 mph44%30.21 "Hg10 mi
5:20 PM57 °FSunny.20 mph51%30.21 "Hg10 mi
4:50 PM57 °FSunny.21 mph51%30.21 "Hg10 mi
4:20 PM57 °FSunny.22 mph51%30.21 "Hg10 mi
3:50 PM57 °FSunny.22 mph51%30.21 "Hg10 mi
3:20 PM59 °FSunny.20 mph51%30.21 "Hg10 mi
2:50 PM57 °FSunny.22 mph51%30.21 "Hg10 mi
2:20 PM59 °FSunny.22 mph48%30.21 "Hg10 mi
1:50 PM59 °FSunny.22 mph51%30.21 "Hg10 mi
1:20 PM59 °FScattered clouds.22 mph51%30.21 "HgN/A
12:50 PM57 °FScattered clouds.22 mph55%30.21 "HgN/A
12:20 PM57 °FScattered clouds.22 mph55%30.21 "HgN/A
11:50 AM57 °FScattered clouds.22 mph55%30.21 "HgN/A
11:20 AM55 °FPartly sunny.22 mph59%30.21 "HgN/A
10:50 AM55 °FScattered clouds.20 mph59%30.21 "HgN/A
10:20 AM54 °FPartly sunny.20 mph63%30.24 "HgN/A
9:50 AM54 °FPartly sunny.22 mph63%30.21 "HgN/A
9:20 AM52 °FPartly sunny.20 mph67%30.24 "HgN/A
8:50 AM52 °FPartly sunny.18 mph62%30.24 "HgN/A
8:20 AM52 °FPartly sunny.20 mph62%30.24 "HgN/A
7:50 AM50 °FPartly sunny.18 mph71%30.24 "HgN/A
7:20 AM50 °FPartly sunny.17 mph67%30.24 "HgN/A
6:50 AM48 °FPartly sunny.15 mph71%30.24 "HgN/A
6:20 AM48 °FPassing clouds.15 mph71%30.24 "HgN/A
5:50 AM48 °FPassing clouds.15 mph71%30.24 "HgN/A
4:50 AM48 °FPassing clouds.14 mph71%30.24 "HgN/A
3:50 AM46 °FClear.15 mph76%30.24 "Hg10 mi
2:20 AM48 °FClear.13 mph71%30.27 "Hg10 mi
1:50 AM48 °FClear.13 mph71%30.27 "Hg10 mi
12:50 AM48 °FClear.13 mph71%30.27 "Hg10 mi
12:20 AM48 °FClear.14 mph71%30.27 "Hg10 mi
Weather by CustomWeather, © 2016

See weather overviewHow to use our weather pages